CW7536 Weather Reports


Display with metric or nautical units.
time (UTC)temp
F
wind
direction
speed
MPH
gust
MPH
rain 1hr
in
rain 24hr
in
rain mn
in
humidity
%
barometer
mb
20260510031615 50 88 0.0 0.0 0.00 0.00 0.00 1 1011.3
20260510030040 50 88 0.0 0.0 0.00 0.00 0.00 1 1011.2
20260510024537 50 88 0.0 0.0 0.00 0.00 0.00 1 1011.2
20260510023042 51 88 0.0 0.0 0.00 0.00 0.00 1 1011.2
20260510021526 51 88 0.0 0.0 0.00 0.00 0.00 1 1011.3
20260510020021 52 88 0.0 0.0 0.00 0.00 0.00 1 1011.4
20260510014516 52 88 0.0 0.0 0.00 0.00 0.00 1 1011.1
20260510013013 52 88 0.0 0.0 0.00 0.00 0.00 1 1011.2
20260510011512 52 88 0.0 0.0 0.00 0.00 0.00 1 1011.2
20260510010010 52 88 0.0 0.0 0.00 0.00 0.00 1 1010.9
20260510004600 53 88 0.0 0.0 0.00 0.00 0.00 1 1010.6
20260510003101 53 88 0.0 0.0 0.00 0.00 0.00 1 1010.5
20260510001550 54 88 0.0 0.0 0.00 0.00 0.00 1 1010.5
20260510000049 54 88 0.0 0.0 0.00 0.00 0.00 1 1010.7
20260509234541 55 88 0.0 0.0 0.00 0.00 0.00 1 1010.5
20260509233039 55 88 0.0 0.0 0.00 0.00 0.00 1 1010.4
20260509231534 56 88 0.0 0.0 0.00 0.00 0.00 1 1010.3
20260509230030 56 88 0.0 0.0 0.00 0.00 0.00 1 1010.4
20260509224526 56 112 0.0 1.0 0.00 0.00 0.00 1 1010.4
20260509223026 56 113 0.0 1.0 0.00 0.00 0.00 1 1010.8
20260509221517 56 113 0.0 1.0 0.00 0.00 0.00 1 1010.7
20260509220014 56 113 0.0 1.0 0.00 0.00 0.00 1 1010.8
20260509214508 56 91 0.0 0.0 0.00 0.00 0.00 1 1010.8
20260509213008 56 91 0.0 1.0 0.00 0.00 0.00 1 1010.9
20260509211507 56 87 0.0 0.0 0.00 0.00 0.00 1 1010.9
20260509210004 56 88 0.0 0.0 0.00 0.00 0.00 1 1010.9
20260509204604 56 85 0.0 0.0 0.00 0.00 0.00 1 1010.8
20260509203100 57 85 0.0 1.0 0.00 0.00 0.00 1 1010.8
20260509201551 57 87 0.0 1.0 0.00 0.00 0.00 1 1010.8
20260509200047 56 281 0.0 0.0 0.00 0.00 0.00 1 1011.0
20260509194544 57 281 0.0 1.0 0.00 0.00 0.00 1 1011.3
20260509193038 57 281 0.0 2.0 0.00 0.00 0.00 1 1011.5
20260509191533 57 243 0.0 5.0 0.00 0.00 0.00 1 1011.4
20260509190029 58 274 0.0 1.0 0.00 0.00 0.00 1 1011.2
20260509184525 57 262 0.0 1.0 0.00 0.00 0.00 1 1011.4
20260509183022 57 238 0.0 2.0 0.00 0.00 0.00 1 1011.0
20260509181516 58 247 0.0 6.0 0.00 0.00 0.00 1 1011.4
20260509180011 60 288 1.0 3.0 0.00 0.00 0.00 1 1011.5
20260509174508 61 264 0.0 3.0 0.00 0.00 0.00 10 1011.4
20260509173002 64 238 0.0 5.0 0.00 0.00 0.00 40 1011.3
20260509171608 65 252 0.0 3.0 0.00 0.00 0.00 43 1010.9
20260509170054 63 244 0.0 4.0 0.00 0.00 0.00 41 1011.0
20260509164551 63 231 0.0 2.0 0.00 0.00 0.00 42 1011.1
20260509163056 63 262 0.0 1.0 0.00 0.00 0.00 39 1011.3
20260509161542 63 295 0.0 5.0 0.00 0.00 0.00 42 1011.5
20260509160039 63 231 1.0 4.0 0.00 0.00 0.00 42 1011.8
20260509154536 62 211 0.0 7.0 0.00 0.00 0.00 36 1012.1
20260509153029 61 237 0.0 2.0 0.00 0.00 0.00 31 1012.0
20260509151524 60 243 0.0 3.0 0.00 0.00 0.00 16 1012.0
20260509150020 59 245 2.0 5.0 0.00 0.00 0.00 10 1012.1
20260509144515 58 268 1.0 5.0 0.00 0.00 0.00 3 1012.1
20260509143010 58 254 1.0 6.0 0.00 0.00 0.00 7 1012.3
20260509141506 58 182 0.0 3.0 0.00 0.00 0.00 1 1012.0
20260509140001 58 160 0.0 2.0 0.00 0.00 0.00 1 1012.1
20260509134559 57 149 0.0 2.0 0.00 0.00 0.00 1 1012.2
20260509133102 56 250 0.0 1.0 0.00 0.00 0.00 1 1012.2
20260509131549 54 100 0.0 1.0 0.00 0.00 0.00 1 1012.1
20260509130045 54 93 0.0 1.0 0.00 0.00 0.00 1 1012.4
20260509124539 53 165 0.0 0.0 0.00 0.00 0.00 1 1012.6
20260509123035 52 199 0.0 0.0 0.00 0.00 0.00 1 1012.5
20260509121537 52 199 0.0 0.0 0.00 0.00 0.00 1 1012.6
20260509120025 52 199 0.0 0.0 0.00 0.00 0.00 1 1012.7
20260509114521 52 200 0.0 0.0 0.00 0.00 0.00 1 1012.5
20260509113017 52 200 0.0 0.0 0.00 0.00 0.00 1 1012.6
20260509111512 51 86 0.0 0.0 0.00 0.00 0.00 1 1012.3
20260509110009 51 86 0.0 0.0 0.00 0.00 0.00 1 1012.7
20260509104508 51 86 0.0 0.0 0.00 0.00 0.00 1 1012.7
20260509103100 51 86 0.0 1.0 0.00 0.00 0.00 1 1012.6
20260509101557 51 86 0.0 0.0 0.00 0.00 0.00 1 1012.3
20260509100105 51 86 0.0 0.0 0.00 0.00 0.00 1 1012.3
20260509094547 51 86 0.0 0.0 0.00 0.00 0.00 1 1012.3
20260509093045 51 86 0.0 0.0 0.00 0.00 0.00 1 1012.3
20260509091538 51 86 0.0 0.0 0.00 0.00 0.00 1 1012.3
20260509090034 51 86 0.0 0.0 0.00 0.00 0.00 1 1012.2
20260509084532 51 86 0.0 0.0 0.00 0.00 0.00 1 1012.4
20260509083026 51 86 0.0 0.0 0.00 0.00 0.00 1 1012.5
20260509081521 51 86 0.0 0.0 0.00 0.00 0.00 1 1012.5
20260509080023 51 86 0.0 0.0 0.00 0.00 0.00 1 1012.5
20260509074512 51 86 0.0 0.0 0.00 0.00 0.00 1 1012.7
20260509073018 51 86 0.0 1.0 0.00 0.00 0.00 1 1012.8
20260509071503 51 86 0.0 0.0 0.00 0.00 0.00 1 1012.7
20260509070101 51 86 0.0 0.0 0.00 0.00 0.00 1 1012.6
20260509064554 51 86 0.0 0.0 0.00 0.00 0.00 1 1012.4
20260509063050 51 86 0.0 0.0 0.00 0.00 0.00 1 1012.4
20260509061552 51 86 0.0 0.0 0.00 0.00 0.00 1 1012.4
20260509060041 51 86 0.0 0.0 0.00 0.00 0.00 1 1013.0
20260509054538 52 86 0.0 0.0 0.00 0.00 0.00 1 1013.2
20260509053034 52 86 0.0 0.0 0.00 0.00 0.00 1 1013.3
20260509051527 52 86 0.0 0.0 0.00 0.00 0.00 1 1013.6
20260509050033 52 86 0.0 0.0 0.00 0.00 0.00 2 1013.4
20260509044519 52 86 0.0 0.0 0.00 0.00 0.00 7 1013.3
20260509043114 52 86 0.0 0.0 0.00 0.00 0.00 5 1013.3
20260509041509 52 86 0.0 0.0 0.00 0.00 0.00 9 1013.3
20260509040006 52 86 0.0 0.0 0.00 0.00 0.00 19 1013.4
20260509034502 53 86 0.0 0.0 0.00 0.00 0.00 23 1013.3
20260509033057 53 86 0.0 0.0 0.00 0.00 0.00 28 1013.4